Total_Precipitation_Accumulation
0.52 0.47 0.50 0.64 0.65 0.50 0.49 0.57 0.60 0.64 0.90 0.96 0.82 0.93 0.90 0.82 0.78 0.80 0.91 1.10 1.39 1.42 1.04 0.92 1.08 1.81 1.62 2.06 1.67 1.31 0.63 0.33 0.85 1.79 1.28 1.04 0.73 0.89 0.51 0.23 0.91 0.79 0.52 0.42 0.47 0.38 0.29
0.60 0.55 0.62 0.71 0.62 0.57 0.55 0.74 0.89 0.91 1.00 1.09 1.17 1.02 0.79 0.73 0.76 0.89 1.16 1.52 1.63 1.51 0.94 0.76 1.50 1.72 1.42 1.59 1.36 1.42 0.69 0.53 0.90 1.64 1.38 1.21 0.86 1.36 0.78 0.52 0.67 0.69 0.75 0.57 0.73 0.55 0.43
0.64 0.70 0.78 0.72 0.64 0.70 0.79 0.93 0.97 0.97 1.30 1.22 1.35 1.19 0.90 0.76 0.66 0.75 0.90 1.17 1.59 1.60 1.13 1.09 1.41 1.44 1.56 1.58 1.22 1.59 0.68 0.71 0.88 1.40 1.54 1.15 0.81 1.22 1.28 0.84 0.35 0.77 0.92 1.04 0.93 0.75 0.66
0.84 0.85 0.81 0.74 0.74 0.89 1.03 0.98 1.00 1.06 1.41 1.57 1.55 1.15 0.82 0.76 0.68 0.68 0.65 0.70 0.68 0.92 1.27 1.27 1.64 1.30 1.76 1.70 1.35 1.51 0.94 0.80 0.93 1.40 1.83 1.50 1.01 1.09 1.17 1.25 0.78 0.84 1.51 1.54 1.00 1.27 1.01
0.86 0.91 0.86 0.84 0.92 1.06 1.12 1.09 1.07 1.07 1.24 1.69 1.74 1.12 0.85 0.72 0.72 0.86 0.91 0.90 0.86 0.91 1.16 1.47 1.56 1.66 1.45 1.57 1.02 1.11 1.25 1.15 1.39 1.65 2.45 2.24 1.46 1.21 1.02 1.49 1.69 0.98 1.31 1.12 0.97 1.02 1.41
0.95 0.95 0.99 0.96 1.00 1.09 1.15 1.03 1.05 1.38 1.45 1.26 1.34 0.95 0.84 0.69 0.62 0.91 2.07 1.84 1.96 1.66 1.63 1.87 2.11 2.18 1.68 1.60 1.00 0.87 1.35 1.35 1.76 1.99 3.49 3.73 2.53 1.30 1.12 1.21 1.37 0.69 0.68 0.75 0.78 0.69 1.04
1.10 1.04 1.06 1.05 1.01 0.99 1.08 1.38 1.27 1.69 1.17 0.98 0.90 0.84 0.88 0.80 1.03 1.47 2.15 2.75 2.51 2.14 2.08 2.71 2.28 1.83 1.47 1.06 0.59 0.85 1.15 2.35 2.52 2.58 3.12 3.54 2.47 1.00 0.73 0.74 0.49 0.55 0.44 0.65 0.56 0.55 0.64
1.30 1.22 1.19 1.16 1.10 1.06 1.13 1.47 1.50 1.13 1.00 1.00 0.87 1.01 1.10 1.01 1.20 1.69 1.89 2.73 2.44 2.38 2.92 2.65 1.49 1.24 1.01 0.72 0.99 0.78 1.24 3.57 2.84 2.30 2.43 2.64 1.35 0.41 0.67 0.92 0.49 0.43 0.40 0.76 0.87 0.71 0.75
1.40 1.27 1.29 1.34 1.29 1.29 1.30 1.47 1.37 1.22 1.24 1.16 1.06 1.16 1.15 1.12 1.18 1.39 1.44 1.95 1.94 1.99 2.64 3.15 2.42 1.82 1.26 1.12 1.01 0.97 1.72 3.04 2.31 1.92 1.93 1.55 0.74 0.58 0.81 1.40 0.68 0.36 0.19 0.45 1.27 0.95 0.66
1.48 1.45 1.43 1.39 1.54 1.66 1.42 1.55 1.31 1.41 1.43 1.26 1.13 1.15 1.28 1.37 1.35 1.23 1.28 1.65 1.72 1.98 2.61 3.65 2.36 2.16 1.36 1.25 1.22 0.81 1.54 2.23 2.21 1.91 2.24 1.89 0.66 0.56 0.88 1.57 0.88 0.65 0.15 0.48 0.87 0.86 0.71
1.41 1.49 1.61 1.62 1.65 1.64 1.77 1.61 1.48 1.38 1.38 1.11 1.06 1.05 1.20 1.78 1.88 1.63 1.50 1.42 1.85 2.15 3.19 3.26 2.29 1.71 1.41 1.07 0.96 1.04 1.42 1.55 1.09 1.35 1.88 1.69 0.91 0.76 0.94 0.95 0.75 0.67 0.33 0.80 0.94 0.75 0.79
1.49 1.44 1.60 1.80 1.90 1.90 1.87 1.76 1.54 1.21 1.07 1.02 1.09 1.15 1.47 1.55 1.65 1.08 1.14 1.73 2.22 2.84 3.37 3.19 2.24 1.69 1.07 0.74 0.74 1.05 1.48 1.13 0.98 1.09 1.05 0.92 0.93 0.93 0.78 0.52 0.27 0.24 0.29 0.76 1.25 1.07 1.13
1.49 1.45 1.49 1.62 1.68 2.03 2.42 2.13 1.51 1.48 1.28 1.34 1.46 1.45 1.80 1.48 1.16 0.90 1.68 2.76 3.33 2.79 1.99 1.74 1.43 0.75 0.55 0.57 0.53 0.58 1.00 0.93 0.94 1.20 1.58 1.50 1.24 0.90 0.77 0.36 0.24 0.29 0.74 1.61 1.72 1.56 0.79
1.39 1.64 1.75 1.63 1.69 2.04 2.70 2.69 2.11 1.92 2.03 2.14 2.21 1.76 1.59 1.18 0.82 1.53 2.71 2.94 3.19 1.82 1.33 0.76 0.59 0.63 0.57 0.33 0.45 0.40 0.54 0.51 0.25 0.19 0.91 1.60 2.00 1.15 0.63 0.28 0.34 0.35 0.69 1.41 1.50 0.59 0.50
1.41 1.70 1.85 1.92 2.10 2.37 2.89 3.22 2.97 3.01 2.64 2.84 2.34 1.73 1.51 1.08 0.99 2.20 3.05 3.10 2.16 1.20 0.83 0.34 0.43 0.58 0.57 0.24 0.24 0.31 0.39 0.28 0.17 0.16 0.58 0.68 1.18 0.58 0.28 0.08 0.16 0.34 0.54 0.47 0.82 0.32 0.50
1.81 2.05 2.15 2.13 2.18 2.25 2.48 2.69 2.80 3.59 3.94 3.59 2.07 1.88 1.64 1.22 1.71 3.07 3.65 2.77 0.92 0.51 0.22 0.21 0.44 0.37 0.31 0.21 0.26 0.16 0.20 0.12 0.09 0.08 0.10 0.17 0.62 0.30 0.16 0.13 0.07 0.08 0.15 0.45 0.76 0.92 0.60
2.44 2.39 2.34 2.19 2.14 2.04 2.10 2.37 2.76 3.40 3.93 3.76 3.25 3.00 2.21 1.66 3.27 5.20 3.98 1.72 0.55 0.19 0.11 0.22 0.23 0.24 0.19 0.18 0.17 0.14 0.09 0.11 0.05 0.06 0.02 0.01 0.21 0.30 0.23 0.26 0.10 0.04 0.15 0.25 0.50 0.69 1.07
2.32 2.41 2.55 2.53 2.48 2.32 2.19 2.42 3.02 3.67 3.89 3.80 4.26 4.46 3.12 2.80 4.82 4.77 2.76 1.06 0.66 0.19 0.08 0.08 0.16 0.27 0.24 0.25 0.27 0.16 0.04 0.02 0.01 0.00 0.00 0.00 0.06 0.12 0.14 0.03 0.01 0.02 0.01 0.08 0.61 0.47 0.62
2.62 2.83 2.92 3.05 2.86 2.62 2.55 2.86 3.38 3.84 3.73 4.05 5.10 4.40 3.80 4.42 5.15 2.95 1.30 0.61 0.35 0.22 0.15 0.20 0.19 0.19 0.16 0.19 0.33 0.10 0.03 0.00 0.00 0.00 0.00 0.00 0.11 0.20 0.21 0.16 0.06 0.06 0.02 0.11 0.27 0.59 0.42
2.24 2.63 2.72 2.72 2.66 2.55 2.55 2.76 3.06 3.84 3.61 4.22 5.42 5.09 4.88 5.52 4.51 1.98 1.53 1.13 0.82 0.64 0.43 0.50 0.47 0.30 0.41 0.31 0.21 0.20 0.06 0.01 0.00 0.02 0.02 0.05 0.32 0.19 0.14 0.11 0.20 0.18 0.03 0.10 0.44 0.69 0.17
2.03 2.32 2.45 2.40 2.68 2.71 2.35 2.42 2.99 3.30 3.39 4.08 4.84 3.72 3.16 4.30 3.62 2.67 2.46 2.33 1.51 1.35 1.32 1.09 1.22 0.95 0.96 1.02 0.62 0.50 0.34 0.25 0.15 0.12 0.15 0.32 0.77 0.30 0.08 0.06 0.22 0.20 0.08 0.08 0.37 0.21 0.38
2.57 2.30 2.12 2.18 2.41 2.82 2.97 2.91 2.84 3.16 3.52 4.00 3.54 2.68 2.48 2.46 2.33 2.45 2.69 2.48 1.51 1.41 1.51 1.29 1.46 1.36 1.43 1.68 1.41 1.17 0.95 0.85 0.65 0.44 0.45 0.70 1.14 0.66 0.44 0.11 0.15 0.25 0.06 0.07 0.10 0.04 0.08
2.71 2.47 2.48 2.47 2.37 2.42 2.57 2.68 3.02 3.36 3.73 3.60 2.86 2.22 2.34 2.11 1.90 2.36 2.41 1.58 1.13 1.09 1.31 0.99 1.00 1.01 0.92 0.89 0.91 0.88 0.82 0.66 0.67 0.61 0.73 1.18 1.37 1.49 0.99 0.26 0.47 0.53 0.09 0.03 0.03 0.06 0.12
2.64 2.55 2.31 2.39 2.08 2.19 2.54 2.49 2.47 3.05 2.99 2.54 2.29 2.12 2.40 2.28 1.45 1.59 1.32 1.09 0.85 0.80 1.09 0.67 0.72 0.87 0.77 0.46 0.49 0.46 0.40 0.33 0.29 0.27 0.37 0.83 1.02 1.85 1.36 0.74 1.22 0.27 0.02 0.00 0.03 0.07 0.07
2.19 2.70 2.95 2.92 2.65 2.34 2.18 2.13 2.34 2.83 3.19 2.09 1.84 2.18 2.71 2.28 1.12 0.89 0.92 0.99 0.78 0.82 1.17 0.86 0.50 0.37 0.30 0.55 1.07 0.95 0.55 0.53 0.35 0.16 0.18 0.35 1.15 2.15 1.71 1.21 0.55 0.11 0.02 0.01 0.06 0.11 0.05
1.97 1.99 2.58 3.06 3.03 2.80 2.85 2.55 2.30 2.47 3.11 2.65 2.01 1.91 2.80 2.75 1.29 0.79 0.84 0.96 1.19 1.40 1.37 0.84 0.40 0.32 0.44 1.00 1.70 1.42 0.65 0.30 0.23 0.16 0.09 0.23 0.81 2.39 2.45 1.94 0.76 0.11 0.02 0.01 0.06 0.16 0.02
1.61 1.52 1.77 2.17 2.71 2.32 2.01 2.03 2.02 2.07 2.38 2.70 2.38 1.59 2.90 3.24 1.23 0.64 0.90 1.01 1.07 1.32 1.44 0.98 0.83 0.80 0.99 1.74 2.06 1.19 0.56 0.16 0.19 0.08 0.12 0.33 0.81 1.85 1.73 2.38 1.17 0.22 0.03 0.03 0.22 0.18 0.01
1.70 1.79 1.86 1.96 2.25 2.56 2.42 1.92 1.69 1.75 2.35 2.76 2.49 1.43 2.28 2.76 1.26 0.56 0.68 0.80 0.83 1.08 1.34 1.17 1.42 1.62 1.65 2.30 1.68 0.95 0.66 0.32 0.26 0.12 0.06 0.16 0.33 0.57 0.92 1.54 0.75 0.11 0.04 0.10 0.13 0.04 0.01
1.71 1.80 1.98 1.98 2.14 2.42 2.53 2.24 2.12 2.01 2.26 2.83 2.61 1.72 1.89 2.77 2.12 0.69 0.49 0.65 0.79 0.99 1.26 1.53 1.66 1.07 1.21 1.69 1.61 1.01 0.86 0.57 0.26 0.22 0.02 0.10 0.13 0.18 0.23 0.22 0.06 0.05 0.05 0.02 0.01 0.02 0.00